SWA1346 KDTW-KBWI

Flight info

Callsign SWA1346
Flight time 1h 7m
Altitude 37000
Route LIDDS4 GRIVY NUSMM ANTHM5
Aircraft B738/M-SADE2E3GIJ4RWZ/LB1D1

Departure

Time 2026-05-04 15:32
Airport Detroit Metropolitan Wayne County Airport (KDTW)

Arrival

Time 2026-05-04 16:39
Airport Baltimore/Washington International Thurgood Marshall Airport (KBWI)
Time Latitude Longitude Altitude Speed Heading
2026-05-04 14:47 42.22724 -83.34814 647 ft 0 kts 108°
2026-05-04 15:21 42.22736 -83.34861 647 ft 2 kts 108°
2026-05-04 15:22 42.22745 -83.34885 649 ft 4 kts 170°
2026-05-04 15:22 42.22766 -83.34877 645 ft 4 kts 209°
2026-05-04 15:22 42.22778 -83.34869 645 ft 1 kts 209°
2026-05-04 15:25 42.22769 -83.34875 646 ft 5 kts 209°
2026-05-04 15:25 42.22721 -83.34911 645 ft 11 kts 208°
2026-05-04 15:25 42.22635 -83.34974 646 ft 17 kts 208°
2026-05-04 15:26 42.22415 -83.35169 645 ft 17 kts 233°
2026-05-04 15:26 42.22338 -83.35293 645 ft 17 kts 219°
2026-05-04 15:26 42.22148 -83.35452 645 ft 16 kts 209°
2026-05-04 15:27 42.22055 -83.35522 645 ft 15 kts 208°
2026-05-04 15:27 42.21878 -83.35545 647 ft 14 kts 148°
2026-05-04 15:28 42.21825 -83.35310 644 ft 17 kts 89°
2026-05-04 15:28 42.21828 -83.35128 645 ft 22 kts 89°
2026-05-04 15:28 42.21836 -83.34674 646 ft 24 kts 89°
2026-05-04 15:29 42.21856 -83.34506 648 ft 15 kts 47°
2026-05-04 15:30 42.22356 -83.34133 645 ft 30 kts 28°
2026-05-04 15:30 42.22841 -83.33773 644 ft 13 kts 36°
2026-05-04 15:31 42.22777 -83.33651 645 ft 13 kts 206°
2026-05-04 15:31 42.22564 -83.33809 646 ft 69 kts 208°
2026-05-04 15:32 42.20159 -83.35579 1855 ft 150 kts 212°
2026-05-04 15:32 42.17850 -83.36169 2493 ft 201 kts 185°
2026-05-04 15:33 42.14771 -83.36053 2891 ft 244 kts 184°
2026-05-04 15:34 42.09533 -83.35776 4952 ft 257 kts 183°
2026-05-04 15:34 42.07737 -83.35671 5722 ft 259 kts 181°
2026-05-04 15:34 42.04420 -83.33426 6894 ft 284 kts 142°
2026-05-04 15:35 42.02630 -83.28607 7005 ft 303 kts 104°
2026-05-04 15:35 42.02265 -83.25807 6994 ft 304 kts 103°
2026-05-04 15:35 42.01888 -83.23001 6998 ft 304 kts 104°
2026-05-04 15:36 42.01397 -83.17388 7014 ft 310 kts 82°
2026-05-04 15:36 42.01837 -83.14525 7570 ft 314 kts 79°
2026-05-04 15:36 42.02257 -83.11677 8574 ft 313 kts 80°
2026-05-04 15:37 42.02660 -83.08816 8958 ft 309 kts 80°
2026-05-04 15:37 42.03048 -83.05959 9707 ft 313 kts 80°
2026-05-04 15:37 42.03438 -83.03049 10435 ft 321 kts 80°
2026-05-04 15:37 42.03849 -82.99972 10686 ft 347 kts 79°
2026-05-04 15:38 42.04291 -82.96660 10913 ft 371 kts 79°
2026-05-04 15:38 42.04755 -82.93186 11477 ft 382 kts 79°
2026-05-04 15:38 42.05225 -82.89652 12285 ft 385 kts 79°
2026-05-04 15:38 42.05538 -82.87294 12844 ft 387 kts 79°
2026-05-04 15:39 42.06015 -82.83703 13631 ft 391 kts 79°
2026-05-04 15:39 42.06495 -82.80076 14298 ft 396 kts 79°
2026-05-04 15:39 42.07074 -82.71410 15059 ft 409 kts 104°
2026-05-04 15:40 42.06323 -82.67688 15639 ft 414 kts 105°
2026-05-04 15:40 42.05820 -82.65153 16153 ft 415 kts 105°
2026-05-04 15:40 42.05093 -82.61371 16865 ft 419 kts 104°
2026-05-04 15:40 42.04383 -82.57584 17478 ft 425 kts 104°
2026-05-04 15:41 42.03662 -82.53712 18085 ft 431 kts 104°
2026-05-04 15:41 42.02929 -82.49775 18641 ft 435 kts 104°
2026-05-04 15:41 42.02200 -82.45806 19238 ft 438 kts 104°
2026-05-04 15:41 42.01472 -82.41813 19830 ft 441 kts 104°
2026-05-04 15:42 42.00743 -82.37815 20665 ft 436 kts 103°
2026-05-04 15:42 42.00027 -82.33901 21731 ft 426 kts 104°
2026-05-04 15:42 41.99314 -82.30013 22342 ft 433 kts 104°
2026-05-04 15:42 41.98576 -82.26003 22457 ft 450 kts 104°
2026-05-04 15:43 41.97812 -82.21861 22740 ft 462 kts 104°
2026-05-04 15:43 41.97032 -82.17645 23259 ft 467 kts 104°
2026-05-04 15:43 41.96253 -82.13456 23809 ft 469 kts 105°
2026-05-04 15:43 41.95041 -82.09397 24329 ft 469 kts 123°
2026-05-04 15:44 41.93012 -82.05990 24863 ft 466 kts 140°
2026-05-04 15:44 41.90501 -82.03250 25377 ft 465 kts 145°
2026-05-04 15:44 41.87918 -82.00619 25824 ft 468 kts 146°
2026-05-04 15:44 41.85306 -81.97976 26234 ft 472 kts 146°
2026-05-04 15:45 41.82681 -81.95289 26691 ft 475 kts 145°
2026-05-04 15:45 41.80057 -81.92567 27143 ft 478 kts 144°
2026-05-04 15:45 41.77433 -81.89820 27580 ft 480 kts 144°
2026-05-04 15:45 41.74796 -81.87050 27993 ft 483 kts 144°
2026-05-04 15:46 41.72180 -81.84308 28396 ft 485 kts 144°
2026-05-04 15:46 41.69468 -81.81482 28776 ft 488 kts 144°
2026-05-04 15:46 41.66783 -81.78786 29176 ft 490 kts 146°
2026-05-04 15:46 41.64025 -81.76093 29565 ft 492 kts 146°
2026-05-04 15:47 41.61247 -81.73408 29911 ft 494 kts 146°
2026-05-04 15:47 41.58452 -81.70709 30230 ft 496 kts 146°
2026-05-04 15:47 41.55658 -81.68003 30626 ft 495 kts 146°
2026-05-04 15:47 41.52873 -81.65297 31065 ft 494 kts 146°
2026-05-04 15:48 41.50098 -81.62596 31476 ft 494 kts 145°
2026-05-04 15:48 41.47317 -81.59888 31869 ft 494 kts 145°
2026-05-04 15:48 41.41763 -81.54485 32679 ft 493 kts 145°
2026-05-04 15:49 41.38991 -81.51792 33074 ft 493 kts 145°
2026-05-04 15:49 41.36216 -81.49101 33451 ft 493 kts 145°
2026-05-04 15:49 41.33440 -81.46412 33830 ft 493 kts 145°
2026-05-04 15:49 41.30699 -81.43760 34128 ft 494 kts 145°
2026-05-04 15:50 41.27915 -81.41070 34405 ft 495 kts 145°
2026-05-04 15:50 41.25126 -81.38377 34698 ft 496 kts 145°
2026-05-04 15:50 41.22336 -81.35686 35007 ft 495 kts 146°
2026-05-04 15:50 41.19550 -81.33002 35332 ft 495 kts 146°
2026-05-04 15:51 41.16759 -81.30315 35601 ft 495 kts 146°
2026-05-04 15:51 41.13965 -81.27627 35860 ft 497 kts 146°
2026-05-04 15:51 41.11157 -81.24931 36108 ft 498 kts 146°
2026-05-04 15:51 41.08322 -81.22301 36393 ft 496 kts 152°
2026-05-04 15:52 41.05184 -81.20486 36647 ft 489 kts 167°
2026-05-04 15:52 41.01918 -81.19252 36902 ft 489 kts 169°
2026-05-04 15:52 40.95295 -81.16858 36893 ft 494 kts 168°
2026-05-04 15:53 40.88743 -81.14406 36890 ft 490 kts 168°
2026-05-04 15:53 40.82219 -81.11887 36907 ft 487 kts 167°
2026-05-04 15:54 40.75718 -81.09364 36903 ft 486 kts 167°
2026-05-04 15:54 40.69234 -81.06854 36915 ft 486 kts 167°
2026-05-04 15:55 40.62734 -81.04346 36924 ft 486 kts 167°
2026-05-04 15:55 40.56227 -81.01843 36923 ft 487 kts 167°
2026-05-04 15:56 40.49755 -80.99359 36923 ft 488 kts 167°
2026-05-04 15:56 40.43236 -80.96861 36926 ft 489 kts 167°
2026-05-04 15:57 40.36698 -80.94360 36929 ft 489 kts 167°
2026-05-04 15:57 40.30153 -80.91862 36927 ft 490 kts 167°
2026-05-04 15:58 40.26924 -80.90628 36916 ft 476 kts 167°
2026-05-04 15:58 40.23797 -80.89433 36908 ft 460 kts 167°
2026-05-04 15:58 40.17748 -80.87134 36936 ft 450 kts 167°
2026-05-04 15:59 40.11727 -80.84854 36944 ft 451 kts 167°
2026-05-04 15:59 40.05855 -80.81955 36916 ft 457 kts 145°
2026-05-04 16:00 40.03560 -80.79086 36940 ft 459 kts 127°
2026-05-04 16:00 40.01946 -80.75516 36919 ft 458 kts 109°
2026-05-04 16:00 40.00155 -80.67639 36936 ft 456 kts 103°
2026-05-04 16:01 39.98486 -80.59675 36941 ft 457 kts 103°
2026-05-04 16:01 39.96750 -80.51683 36946 ft 457 kts 104°
2026-05-04 16:02 39.94974 -80.43710 36947 ft 458 kts 104°
2026-05-04 16:03 39.92287 -80.31746 36950 ft 458 kts 104°
2026-05-04 16:03 39.90505 -80.23838 36956 ft 458 kts 104°
2026-05-04 16:04 39.88705 -80.15874 36972 ft 457 kts 105°
2026-05-04 16:04 39.86002 -80.03962 36961 ft 457 kts 105°
2026-05-04 16:05 39.84382 -79.95975 36965 ft 456 kts 102°
2026-05-04 16:05 39.82876 -79.87955 36712 ft 458 kts 102°
2026-05-04 16:06 39.82110 -79.83942 36308 ft 456 kts 102°
2026-05-04 16:06 39.80049 -79.73378 35236 ft 448 kts 103°
2026-05-04 16:07 39.79028 -79.68192 34707 ft 445 kts 103°
2026-05-04 16:07 39.76724 -79.56632 33579 ft 436 kts 104°
2026-05-04 16:08 39.75897 -79.52858 33192 ft 433 kts 105°
2026-05-04 16:08 39.73379 -79.41722 32135 ft 423 kts 105°
2026-05-04 16:09 39.71740 -79.34423 31422 ft 418 kts 105°
2026-05-04 16:09 39.70128 -79.27224 30732 ft 413 kts 105°
2026-05-04 16:10 39.68538 -79.20140 30052 ft 408 kts 105°
2026-05-04 16:11 39.66172 -79.09643 28935 ft 398 kts 105°
2026-05-04 16:11 39.65404 -79.06190 28504 ft 397 kts 104°
2026-05-04 16:12 39.63155 -78.95830 27228 ft 397 kts 104°
2026-05-04 16:12 39.60919 -78.85582 25979 ft 394 kts 105°
2026-05-04 16:13 39.59421 -78.78761 25155 ft 392 kts 105°
2026-05-04 16:13 39.57924 -78.71964 24319 ft 391 kts 105°
2026-05-04 16:14 39.56426 -78.65179 23473 ft 392 kts 105°
2026-05-04 16:14 39.54940 -78.58428 22552 ft 390 kts 104°
2026-05-04 16:15 39.52804 -78.48360 21306 ft 383 kts 104°
2026-05-04 16:16 39.51388 -78.41733 20502 ft 380 kts 104°
2026-05-04 16:16 39.49211 -78.31944 19304 ft 375 kts 105°
2026-05-04 16:17 39.47753 -78.25508 18523 ft 372 kts 105°
2026-05-04 16:18 39.45586 -78.15928 17238 ft 367 kts 105°
2026-05-04 16:18 39.45006 -78.12728 16829 ft 363 kts 93°
2026-05-04 16:19 39.45083 -78.03111 15714 ft 355 kts 88°
2026-05-04 16:19 39.45096 -77.96760 14970 ft 351 kts 89°
2026-05-04 16:20 39.45083 -77.87458 14163 ft 338 kts 89°
2026-05-04 16:20 39.45074 -77.81433 13625 ft 330 kts 89°
2026-05-04 16:21 39.45054 -77.72712 12910 ft 317 kts 89°
2026-05-04 16:22 39.45001 -77.67070 12781 ft 313 kts 90°
2026-05-04 16:22 39.44910 -77.58473 12553 ft 318 kts 90°
2026-05-04 16:23 39.44814 -77.49856 12295 ft 320 kts 90°
2026-05-04 16:24 39.44680 -77.38376 11949 ft 318 kts 90°
2026-05-04 16:25 39.44545 -77.32693 11783 ft 317 kts 92°
2026-05-04 16:26 39.44062 -77.21327 11453 ft 315 kts 92°
2026-05-04 16:26 39.43719 -77.12941 11191 ft 308 kts 92°
2026-05-04 16:27 39.43493 -77.07433 11003 ft 305 kts 92°
2026-05-04 16:28 39.43140 -76.99073 10326 ft 311 kts 93°
2026-05-04 16:28 39.42792 -76.90874 9569 ft 301 kts 93°
2026-05-04 16:29 39.42372 -76.81161 8715 ft 289 kts 93°
2026-05-04 16:30 39.42005 -76.73450 8049 ft 285 kts 99°
2026-05-04 16:31 39.40869 -76.68514 7583 ft 288 kts 113°
2026-05-04 16:31 39.38104 -76.61813 6874 ft 277 kts 129°
2026-05-04 16:32 39.34779 -76.55854 6193 ft 271 kts 129°
2026-05-04 16:33 39.32571 -76.51917 5613 ft 272 kts 130°
2026-05-04 16:33 39.29557 -76.49059 4817 ft 269 kts 152°
2026-05-04 16:34 39.26445 -76.46635 4050 ft 250 kts 154°
2026-05-04 16:34 39.24961 -76.45533 3629 ft 240 kts 152°
2026-05-04 16:35 39.20705 -76.45412 2503 ft 193 kts 213°
2026-05-04 16:35 39.18210 -76.48864 2122 ft 174 kts 230°
2026-05-04 16:36 39.17512 -76.50148 1902 ft 175 kts 243°
2026-05-04 16:36 39.16870 -76.53005 1464 ft 154 kts 258°
2026-05-04 16:37 39.16783 -76.55516 1167 ft 135 kts 265°
2026-05-04 16:37 39.16771 -76.56708 1021 ft 133 kts 267°
2026-05-04 16:37 39.16911 -76.59124 764 ft 138 kts 269°
2026-05-04 16:38 39.17052 -76.61576 625 ft 139 kts 270°
2026-05-04 16:39 39.17254 -76.65136 217 ft 135 kts 272°
2026-05-04 16:39 39.17355 -76.66910 152 ft 48 kts 274°
2026-05-04 16:40 39.17534 -76.67270 146 ft 16 kts 325°
2026-05-04 16:40 39.17655 -76.67220 149 ft 6 kts
2026-05-04 16:41 39.17777 -76.67321 149 ft 17 kts 324°
2026-05-04 16:41 39.17986 -76.67411 152 ft 10 kts 133°
2026-05-04 16:42 39.17934 -76.67351 153 ft 3 kts 134°
2026-05-04 16:43 39.17945 -76.67254 155 ft 3 kts 58°
2026-05-04 16:43 39.17948 -76.67247 155 ft 0 kts 58°